This is the latest recevied weather packets stored in our database for station/object KO4LCK. If no packets are shown the sender has not sent any weather packets the latest 10 day(s).
| Time | Temp. | Humidity | Pressure | Rain* | Wind** | Luminosity | Snow |
|---|---|---|---|---|---|---|---|
| 1778019386 | 26.11° C | 37% | 1013.2 hPa | 0 mm | - | 98 W/m² | - |
| 1778019082 | 26.11° C | 39% | 1013.2 hPa | 0 mm | - | 278 W/m² | - |
| 1778018780 | 25.56° C | 39% | 1013.2 hPa | 0 mm | - | 334 W/m² | - |
| 1778018477 | 25° C | 40% | 1013.1 hPa | 0 mm | - | 277 W/m² | - |
| 1778018175 | 25° C | 40% | 1013.1 hPa | 0 mm | - | 182 W/m² | - |
| 1778017873 | 25° C | 40% | 1013.3 hPa | 0 mm | - | 67 W/m² | - |
| 1778017571 | 25° C | 39% | 1013.3 hPa | 0 mm | - | 81 W/m² | - |
| 1778017268 | 25.56° C | 38% | 1013.4 hPa | 0 mm | - | 87 W/m² | - |
| 1778016965 | 25.56° C | 38% | 1013.4 hPa | 0 mm | - | 91 W/m² | - |
| 1778016662 | 25.56° C | 39% | 1013.5 hPa | 0 mm | - | 93 W/m² | - |
| 1778016358 | 25.56° C | 37% | 1013.4 hPa | 0 mm | - | 100 W/m² | - |
| 1778016056 | 25.56° C | 37% | 1013.2 hPa | 0 mm | - | 124 W/m² | - |
| 1778015752 | 25.56° C | 36% | 1013.3 hPa | 0 mm | - | 231 W/m² | - |
| 1778015449 | 25.56° C | 36% | 1013.2 hPa | 0 mm | - | 187 W/m² | - |
| 1778015146 | 25.56° C | 36% | 1013.4 hPa | 0 mm | - | 144 W/m² | - |
| 1778014843 | 26.11° C | 35% | 1013.3 hPa | 0 mm | - | 186 W/m² | - |
| 1778014541 | 26.11° C | 35% | 1013.5 hPa | 0 mm | - | 207 W/m² | - |
| 1778014238 | 26.67° C | 34% | 1013.6 hPa | 0 mm | - | 196 W/m² | - |
| 1778013935 | 26.67° C | 35% | 1013.5 hPa | 0 mm | - | 174 W/m² | - |
| 1778013632 | 27.22° C | 33% | 1013.3 hPa | 0 mm | - | 353 W/m² | - |
| 1778013329 | 27.22° C | 33% | 1013.5 hPa | 0 mm | - | 606 W/m² | - |
| 1778013026 | 27.22° C | 33% | 1013.8 hPa | 0 mm | - | 541 W/m² | - |
| 1778012722 | 26.67° C | 33% | 1013.9 hPa | 0 mm | - | 587 W/m² | - |
| 1778012418 | 27.22° C | 34% | 1013.7 hPa | 0 mm | - | 440 W/m² | - |
| 1778012115 | 27.78° C | 31% | 1013.9 hPa | 0 mm | - | 485 W/m² | - |
* Rain latest hour (hover to see other rain measurements)
** Current wind speed in m/s (hover to see current wind gust speed)